Location: Unspecified
(44.0704°N, 88.6889°W)
Time: 21:08:09
(UTC+02:00)

Transit 2A - Pass Details

Date: 17 June 2019
Orbit: 597 x 962 km, 66.7° (Epoch: 19 August)

Event Time Altitude Azimuth Distance (km) Brightness Sun altitude
Rises 17:16:30 0° 331° (NNW) 3,499 9.1 51.5°
Reaches altitude 10° 17:19:16 10° 339° (NNW) 2,503 8.5 52.0°
Maximum altitude 17:24:41 41° 49° (NE) 1,151 7.8 52.9°
Drops below altitude 10° 17:29:35 10° 119° (ESE) 2,255 9.2 53.7°
Sets 17:31:57 0° 127° (SE) 3,115 9.7 54.1°
